Location: Nianha
(10.8000°N, 4.6333°W)
Time: 00:46:25
(UTC+00:00)

Meteor 1-31 Rocket - Pass Details

Date: 14 November 2019
Orbit: 521 x 547 km, 97.6° (Epoch: 17 January)

Event Time Altitude Azimuth Distance (km) Brightness Sun altitude
Exits shadow 04:37:48 76° 46° (NE) 557 2.8 -23.4°
Maximum altitude 04:38:02 82° 101° (ESE) 547 2.7 -23.3°
Drops below altitude 10° 04:41:56 10° 189° (S) 1,799 5.5 -22.4°
Sets 04:44:03 0° 190° (S) 2,694 6.4 -21.9°
